Home   Weather   Whitby   Past weeks

Flag for Canada Past Weather in Whitby, Ontario, Canada — Yesterday and Last 2 Weeks

Now
36 °F

Fog.


Feels Like: 36 °F
Forecast: 36 / 42 °F
Wind: No wind

Location: Toronto Buttonville

Current Time: Jan 21, 2017 at 10:49:10 am

Latest Report: Jan 21, 2017 at 10:00 am


Visibility: 0 mi

Pressure: 29.80 "Hg

Humidity: 100%

Dew Point: 36 °F

Location of WhitbyLocation

Past Weather in Whitby — Graph

°F

Whitby Temperature Yesterday

Maximum temperature yesterday: 37 °F (at 11:20 am)
Minimum temperature yesterday: 34 °F (at 12:00 am)
Average temperature yesterday: 36 °F

High & Low Weather Summary for the Past Weeks

 TemperatureHumidityPressure
High46 °F (Jan 12, 3:00 am)100% (Jan 10, 6:06 pm)30.81 "Hg (Jan 10, 6:06 pm)
Low7 °F (Jan 7, 5:00 am)48% (Jan 16, 4:00 pm)29.45 "Hg (Jan 11, 12:00 am)
Average28 °F80%30.12 "Hg
* Reported Jan 6 9:00 am — Jan 21 9:00 am, Whitby, Weather by CustomWeather, © 2017

Note: Actual official high and low records may vary slightly from our data, if they occured in-between our weather recording intervals... More about our weather records

Advertising

Whitby Weather History for the Previous 24 Hours

Scroll right to see more
 ConditionsComfort  
Time TempWeatherWind HumidityBarometerVisibility
9:00 am
Sat, Jan 21
36 °FFog.3 mph100%29.81 "Hg0 mi
8:00 am36 °FFog.5 mph100%29.81 "Hg0 mi
7:22 am36 °FFog.2 mph100%29.80 "Hg1 mi
7:00 am36 °FFog.2 mph100%29.80 "Hg1 mi
6:44 am37 °FFog.3 mph93%29.81 "Hg2 mi
6:38 am37 °FFog.3 mph93%29.81 "Hg2 mi
6:00 am36 °FFog.3 mph93%29.79 "Hg1 mi
5:00 am36 °FFog.No wind100%29.79 "Hg1 mi
4:43 am36 °FFog.No wind93%29.79 "Hg1 mi
4:00 am37 °FFog.3 mph93%29.80 "Hg1 mi
3:00 am37 °FFog.3 mph100%29.80 "Hg2 mi
2:00 am37 °FFog.No wind93%29.80 "Hg1 mi
1:13 am37 °FDrizzle. Fog.3 mph93%29.78 "Hg1 mi
1:00 am37 °FDrizzle. Fog.3 mph93%29.78 "Hg1 mi
12:00 am37 °FDrizzle. Fog.3 mph93%29.78 "Hg1 mi
11:32 pm
Fri, Jan 20
36 °FDrizzle. Fog.2 mph100%29.77 "Hg1 mi
11:00 pm36 °FDrizzle. Fog.5 mph100%29.77 "Hg1 mi
10:40 pm36 °FDrizzle. Fog.2 mph100%29.76 "Hg1 mi
10:24 pm36 °FDrizzle. Fog.5 mph100%29.76 "Hg1 mi
10:01 pm37 °FDrizzle. Fog.3 mph93%29.77 "Hg1 mi
9:41 pm37 °FDrizzle. Fog.7 mph93%29.76 "Hg2 mi
9:12 pm37 °FDrizzle. Fog.5 mph93%29.77 "Hg2 mi
9:00 pm37 °FDrizzle. Fog.6 mph93%29.76 "Hg2 mi
8:43 pm37 °FDrizzle. Fog.6 mph93%29.77 "Hg2 mi
8:00 pm36 °FDrizzle. Fog.5 mph100%29.77 "Hg2 mi
7:00 pm37 °FMostly cloudy.5 mph93%29.77 "Hg8 mi
6:00 pm37 °FMostly cloudy.6 mph87%29.76 "Hg8 mi
5:00 pm37 °FMostly cloudy.9 mph87%29.75 "Hg8 mi
4:00 pm37 °FMostly cloudy.8 mph87%29.75 "Hg8 mi
3:00 pm37 °FLow clouds.12 mph87%29.74 "Hg10 mi
2:00 pm37 °FLow clouds.13 mph87%29.75 "Hg10 mi
1:00 pm36 °FLow clouds.9 mph93%29.77 "Hg10 mi
12:00 pm37 °FLow clouds.13 mph87%29.79 "Hg8 mi
11:20 am37 °FLow clouds.13 mph87%29.81 "Hg8 mi
10:00 am36 °FOvercast.6 mph87%29.84 "Hg12 mi
Weather by CustomWeather, © 2017

See weather overviewHow to use our weather pages